Content
SEND FEEDBACK

Daily
Averages
Monthly
Summary
United States of America

UMATAC, GUAM


Home > North America > United States > Guam
Elevation: 190 feet     Latitude: 13 17N     Longitude: 144 40E

WEATHER
 
SELECT A DAY
Number of Records: 342,038;   Date Range: 1/1/95 - 7/29/14
 
SHARE

PRINT THIS DATA

[ ← Previous Day ]
WEATHER ALMANAC - MAY 5, 2013
[ Next Day → ]
[ °C ]   °F
Weather ElementAverageHighLow
Temperature81.4 °F86 °F (12:54 pm)77.7 °F (4:55 am)
Dewpoint75.7 °F77 °F (9:01 am)73.2 °F (10:55 pm)
Humidity83 %90 % (4:55 am)74 % (12:54 pm)
Barometer29.88 in29.93 in (8:55 am)29.81 in (3:38 pm)
Wind Speed13.7 mph21.9 mph (3:38 pm)
Wind Gust27.6 mph (3:38 pm)
Weather ElementAverage
Visibility9.5 mi
Wind DirectionENE (79.2 °)

Weather ElementTotal
Precipitation0.04 in
Cooling Degree Days16.9 (Base 65)
Growing Degree Days31.9 (Base 50)
Averaged from 100 records on May 5, 2013
WEATHER CONDITIONS BREAKOUT
WIND DIRECTION BREAKOUT
WEATHER BY HOUR - MAY 5, 2013
[ °C ]   °F
Local TimeTemperatureDewpointHumidityBarometerVisibilityWind DirectionWind SpeedGust SpeedPrecipitationEventsConditions
12:32 AM80.6 °F73.4 °F79 %29.92 in10.0 miEast (100°)12.7 mphScattered Clouds
12:55 AM79.7 °F74.3 °F83 %29.92 in10.0 miEast (90°)12.7 mphScattered Clouds
1:12 AM80.6 °F73.4 °F79 %29.91 in10.0 miEast (80°)15.0 mphMostly Cloudy
1:17 AM78.8 °F75.2 °F89 %29.91 in10.0 miEast (80°)12.7 mphScattered Clouds
1:55 AM79.2 °F74.3 °F85 %29.90 in10.0 miEast (80°)10.4 mphPartly Cloudy
2:28 AM78.8 °F75.2 °F89 %29.89 in10.0 miEast (80°)12.7 mphMostly Cloudy
2:31 AM78.8 °F75.2 °F89 %29.89 in10.0 miEast (80°)11.5 mphScattered Clouds
2:55 AM79.2 °F74.8 °F87 %29.88 in10.0 miEast (80°)11.5 mphScattered Clouds
3:09 AM78.8 °F75.2 °F89 %29.88 in10.0 miEast (90°)12.7 mphMostly Cloudy
3:55 AM79.2 °F74.8 °F87 %29.88 in10.0 miENE (70°)11.5 mphMostly Cloudy
3:58 AM78.8 °F75.2 °F89 %29.88 in10.0 miENE (70°)12.7 mphMostly Cloudy
4:05 AM78.8 °F75.2 °F89 %29.88 in10.0 miENE (70°)12.7 mphMostly Cloudy
4:08 AM78.8 °F75.2 °F89 %29.88 in10.0 miENE (70°)12.7 mphScattered Clouds
4:09 AM78.8 °F75.2 °F89 %29.88 in10.0 miEast (80°)12.7 mphMostly Cloudy
4:12 AM78.8 °F75.2 °F89 %29.88 in10.0 miENE (70°)12.7 mphMostly Cloudy
4:21 AM78.8 °F75.2 °F89 %29.89 in10.0 miENE (70°)13.8 mphMostly Cloudy
4:44 AM78.8 °F73.4 °F83 %29.89 in10.0 miENE (60°)10.4 mphScattered Clouds
4:55 AM77.7 °F74.5 °F90 %29.89 in10.0 miENE (60°)10.4 mphPartly Cloudy
5:46 AM78.8 °F75.2 °F89 %29.90 in10.0 miEast (80°)11.5 mphMostly Cloudy
5:49 AM78.8 °F75.2 °F89 %29.90 in10.0 miEast (80°)11.5 mphScattered Clouds
5:55 AM78.8 °F74.7 °F87 %29.90 in10.0 miENE (70°)9.2 mphMostly Cloudy
5:56 AM78.8 °F75.2 °F89 %29.90 in10.0 miENE (70°)10.4 mphScattered Clouds
5:57 AM78.8 °F75.2 °F89 %29.90 in10.0 miENE (70°)11.5 mphMostly Cloudy
6:02 AM78.8 °F75.2 °F89 %29.90 in10.0 miEast (80°)11.5 mphMostly Cloudy
6:03 AM78.8 °F75.2 °F89 %29.90 in10.0 miENE (70°)12.7 mphMostly Cloudy
6:05 AM78.8 °F75.2 °F89 %29.90 in10.0 miENE (70°)11.5 mphMostly Cloudy
6:07 AM78.8 °F75.2 °F89 %29.90 in10.0 miEast (80°)10.4 mphMostly Cloudy
6:49 AM80.6 °F73.4 °F79 %29.91 in10.0 miEast (80°)12.7 mphScattered Clouds
6:55 AM79.9 °F74.5 °F83 %29.91 in10.0 miEast (80°)12.7 mphScattered Clouds
7:38 AM80.6 °F75.2 °F84 %29.91 in10.0 miENE (70°)13.8 mphMostly Cloudy
7:46 AM82.4 °F75.2 °F79 %29.91 in10.0 miEast (80°)16.1 mphScattered Clouds
7:55 AM82.6 °F75.2 °F78 %29.91 in10.0 miENE (70°)15.0 mphScattered Clouds
8:12 AM82.4 °F75.2 °F79 %29.92 in10.0 miNE (50°)12.7 mphMostly Cloudy
8:16 AM82.4 °F75.2 °F79 %29.91 in10.0 miNE (50°)12.7 mphMostly Cloudy
8:19 AM82.4 °F75.2 °F79 %29.91 in10.0 miENE (60°)11.5 mphMostly Cloudy
8:20 AM82.4 °F75.2 °F79 %29.92 in10.0 miENE (70°)13.8 mphMostly Cloudy
8:55 AM82.8 °F76.1 °F80 %29.93 in10.0 miENE (70°)15.0 mphMostly Cloudy
9:01 AM82.4 °F77.0 °F84 %29.93 in10.0 miEast (80°)12.7 mphScattered Clouds
9:02 AM82.4 °F77.0 °F84 %29.93 in10.0 miEast (80°)13.8 mphMostly Cloudy
9:06 AM84.2 °F77.0 °F79 %29.93 in10.0 miENE (70°)12.7 mphScattered Clouds
9:10 AM84.2 °F77.0 °F79 %29.92 in10.0 miEast (80°)13.8 mphMostly Cloudy
9:15 AM82.4 °F77.0 °F84 %29.92 in10.0 miEast (80°)15.0 mphMostly Cloudy
9:17 AM82.4 °F77.0 °F84 %29.93 in10.0 miENE (70°)15.0 mphMostly Cloudy
9:19 AM82.4 °F77.0 °F84 %29.93 in10.0 miENE (70°)12.7 mphMostly Cloudy
9:21 AM82.4 °F77.0 °F84 %29.92 in10.0 miENE (70°)12.7 mphMostly Cloudy
9:38 AM84.2 °F77.0 °F79 %29.92 in10.0 miENE (70°)12.7 mphMostly Cloudy
9:42 AM82.4 °F77.0 °F84 %29.92 in9.0 miENE (60°)15.0 mphMostly Cloudy
9:43 AM82.4 °F77.0 °F84 %29.92 in9.0 miENE (60°)13.8 mphRainLight Rain
9:55 AM82.2 °F77.0 °F84 %29.92 in7.0 miEast (80°)16.1 mph0.00 inLight Drizzle
9:56 AM82.4 °F77.0 °F84 %29.92 in7.0 miENE (70°)13.8 mphLight Drizzle
10:05 AM82.4 °F77.0 °F84 %29.92 in9.0 miEast (80°)12.7 mphOvercast
10:06 AM82.4 °F77.0 °F84 %29.91 in10.0 miEast (80°)11.5 mphOvercast
10:41 AM84.2 °F77.0 °F79 %29.91 in10.0 miEast (80°)15.0 mphMostly Cloudy
10:47 AM84.2 °F77.0 °F79 %29.90 in10.0 miEast (80°)16.1 mphScattered Clouds
10:52 AM84.2 °F77.0 °F79 %29.90 in10.0 miENE (70°)15.0 mphMostly Cloudy
10:53 AM84.2 °F77.0 °F79 %29.90 in10.0 miEast (80°)13.8 mphScattered Clouds
10:55 AM84.9 °F76.6 °F76 %29.90 in10.0 miEast (80°)15.0 mph0.00 inScattered Clouds
11:55 AM85.6 °F77.0 °F75 %29.88 in10.0 miENE (70°)13.8 mphPartly Cloudy
12:54 PM86.0 °F77.0 °F74 %29.86 in10.0 miEast (80°)16.1 mphMostly Cloudy
12:55 PM85.1 °F77.0 °F77 %29.86 in10.0 miEast (80°)17.3 mphMostly Cloudy
1:10 PM86.0 °F77.0 °F74 %29.86 in10.0 miEast (80°)15.0 mphScattered Clouds
1:13 PM86.0 °F77.0 °F74 %29.86 in10.0 miENE (70°)16.1 mphMostly Cloudy
1:23 PM86.0 °F77.0 °F74 %29.85 in10.0 miEast (80°)16.1 mphScattered Clouds
1:55 PM85.6 °F76.6 °F74 %29.83 in10.0 miEast (80°)15.0 mphScattered Clouds
2:21 PM84.2 °F77.0 °F79 %29.82 in10.0 miENE (70°)17.3 mphMostly Cloudy
2:27 PM84.2 °F77.0 °F79 %29.82 in10.0 miENE (70°)16.1 mphScattered Clouds
2:29 PM84.2 °F77.0 °F79 %29.82 in10.0 miEast (80°)17.3 mphMostly Cloudy
2:30 PM84.2 °F77.0 °F79 %29.82 in10.0 miEast (80°)17.3 mphMostly Cloudy
2:45 PM84.2 °F75.2 °F74 %29.82 in10.0 miEast (80°)17.3 mphScattered Clouds
2:55 PM84.4 °F75.9 °F76 %29.82 in10.0 miEast (90°)13.8 mphScattered Clouds
3:38 PM84.2 °F77.0 °F79 %29.81 in5.0 miEast (90°)21.9 mph27.6 mphRainLight Rain
3:41 PM82.4 °F75.2 °F79 %29.81 in1.5 miEast (90°)13.8 mph27.6 mphRainHeavy Rain
3:48 PM80.6 °F75.2 °F84 %29.81 in1.8 miEast (90°)12.7 mphRainLight Rain
3:49 PM78.8 °F75.2 °F89 %29.81 in2.0 miEast (80°)12.7 mphRainLight Rain
3:50 PM78.8 °F75.2 °F89 %29.82 in4.0 miEast (80°)12.7 mphRainLight Rain
3:51 PM78.8 °F75.2 °F89 %29.81 in7.0 miEast (90°)11.5 mphMostly Cloudy
3:55 PM79.5 °F76.1 °F89 %29.81 in10.0 miEast (90°)9.2 mph0.04 inScattered Clouds
4:55 PM82.2 °F76.8 °F84 %29.81 in10.0 miEast (80°)15.0 mphScattered Clouds
5:28 PM82.4 °F77.0 °F84 %29.81 in10.0 miEast (100°)12.7 mphMostly Cloudy
5:34 PM82.4 °F75.2 °F79 %29.81 in10.0 miEast (100°)16.1 mphScattered Clouds
5:40 PM82.4 °F77.0 °F84 %29.81 in10.0 miEast (90°)15.0 mphMostly Cloudy
5:44 PM82.4 °F75.2 °F79 %29.81 in10.0 miEast (90°)16.1 mphScattered Clouds
5:55 PM81.3 °F74.8 °F81 %29.82 in10.0 miEast (100°)15.0 mphScattered Clouds
6:55 PM80.4 °F74.8 °F83 %29.83 in10.0 miEast (90°)15.0 mphPartly Cloudy
7:07 PM80.6 °F75.2 °F84 %29.84 in10.0 miEast (90°)16.1 mphMostly Cloudy
7:09 PM80.6 °F75.2 °F84 %29.84 in10.0 miEast (90°)16.1 mphScattered Clouds
7:55 PM80.1 °F75.0 °F85 %29.86 in10.0 miEast (80°)12.7 mphScattered Clouds
8:33 PM80.6 °F75.2 °F84 %29.86 in10.0 miEast (90°)13.8 mphMostly Cloudy
8:34 PM80.6 °F75.2 °F84 %29.86 in10.0 miEast (90°)15.0 mphScattered Clouds
8:35 PM80.6 °F75.2 °F84 %29.87 in10.0 miEast (100°)13.8 mphRainLight Rain
8:45 PM80.6 °F75.2 °F84 %29.87 in10.0 miEast (100°)11.5 mphMostly Cloudy
8:55 PM79.9 °F76.1 °F88 %29.87 in10.0 miEast (100°)10.4 mph0.00 inMostly Cloudy
9:16 PM80.6 °F75.2 °F84 %29.87 in10.0 miEast (90°)16.1 mphMostly Cloudy
9:18 PM80.6 °F75.2 °F84 %29.87 in10.0 miEast (90°)15.0 mphMostly Cloudy
9:23 PM80.6 °F75.2 °F84 %29.87 in10.0 miEast (90°)15.0 mphScattered Clouds
9:37 PM80.6 °F75.2 °F84 %29.87 in10.0 miEast (80°)13.8 mphMostly Cloudy
9:55 PM79.9 °F75.2 °F86 %29.88 in10.0 miEast (90°)13.8 mphMostly Cloudy
10:13 PM80.6 °F75.2 °F84 %29.88 in10.0 miEast (90°)13.8 mphScattered Clouds
10:55 PM79.5 °F73.2 °F81 %29.89 in10.0 miEast (80°)17.3 mphScattered Clouds
11:55 PM79.5 °F73.4 °F81 %29.88 in10.0 miEast (80°)13.8 mphPartly Cloudy
Hourly data recorded from PGUA, located miles away from Umatac, Guam







STORIES FROM OUR PARTNERS